ATLAS 5 CENTAUR DEB, 44659

Orbit data source: Space-Track

ATLAS 5 CENTAUR DEB, 44659 is space debris in HEO originally from a launch on Wed, 17 Oct 2018 UTC launched from the Air Force Eastern Test Range (AFETR). Debris objects in space refer to the collection of defunct objects orbiting the Earth. Examples of debris include non-operational satellites, rocket bodies, and fragments generated from explosions, collisions, or faulty payload assembly.

Loading next visibility...
Identifier
44659, 2018-079V
Orbit
HEO
Country
Flag of USUS
Related business
Flag of USUnited Launch Alliance/Lockheed Martin (US)
Manufacturer
ULA Decatur
Mission
Spacecraft
Bus & Motor
Unknown
Mass
Unknown
Launch date (UTC)
2018-10-17 (8 years ago)
Launch vehicle
Unknown
Launch site
Air Force Eastern Test Range (AFETR)
Object type
Payload
Rocket body
Debris
Shape & HBR
Unknown shape, 1.1 m
Radar Cross Section
Medium (>0.1 m² and <1 m²)

Expand to show TLE details & history
Last TLE update: 3 days ago

TLE from 3 days ago
0 ATLAS 5 CENTAUR DEB
1 44659U 18079V   26170.88771022 -.00000121  00000-0  00000+0 0  9998
2 44659  13.4748  18.0236 4538273 350.5326   3.2089  1.90596105 49419
Epoch: 2026-06-19T21:18Z
TLE epoch observation values (Epoch: 2026-06-19T21:18:18.163Z)
Latitude
0.00016°
Longitude
150.33708°
Altitude
8,718.899 km
Speed
6.189 km/s
True Right ascension
01h 12m 05s
True Declination
0° 00' 01"
Sunlit
Object was in daylight at epoch
Visualization orbit readout
Latitude
Unknown
Longitude
Unknown
Altitude
Unknown
Speed
Unknown
Apparent Right ascension
Unknown
Apparent Declination
Unknown
Sunlit
N/A
Visualization observer readout
Local Sidereal Time
21:39:11
Azimuth
Unknown
Elevation
Unknown
Doppler factor
Unknown
Orbital elements
Apogee altitude
33,573.858 km
Perigee altitude
8,630.997 km
Semi-major axis
27,480.564 km
Eccentricity
0.45383
Inclination
13.4748°
RAAN
18.0236°
Arg. of periapsis
350.5326°
True anomaly
9.55782°
Mean anomaly
3.2089°
Eccentric anomaly
5.86673°
Mean motion
0.47644 °/min
Orbital period
755.61 mins
BSTAR
0
Loading maneuver chart data...
Computing Atmospheric mass density...

Documentation

Showing up to 5 results
|